When you browse on this site, cookies collect data to enhance your experience and personalize the content and advertising you see.
Visit our Privacy Policy to learn more. By continuing to use the site, you agree to this use of cookies and data.
  • In Czech Republic
  • List of Countries
  • For 7 days
  • Water Temperature
  • Weather Map
  • Weather Widgets
  • user-avatar
    Login

    Hourly Weather Durres

    Today, 8 December, Sunday

    Time Temperature Precipitation Wind Pressure Humidity
    00:00 +12°C° 0.1 mm 2 mps 763 mmHg 89%
    01:00 +12°C° 0.1 mm 2 mps 763 mmHg 89%
    02:00 +12°C° 0.3 mm 2 mps 763 mmHg 88%
    03:00 +12°C° 0.3 mm 2 mps 763 mmHg 88%
    04:00 +12°C° 0.3 mm 2 mps 763 mmHg 87%
    05:00 +12°C° 0.2 mm 2 mps 763 mmHg 87%
    06:00 +12°C° 0.2 mm 2 mps 763 mmHg 87%
    07:00 +12°C° 0.2 mm 2 mps 764 mmHg 86%
    08:00 +13°C° 0 mm 2 mps 764 mmHg 82%
    09:00 +14°C° 0 mm 2 mps 764 mmHg 78%
    10:00 +15°C° 0 mm 2 mps 764 mmHg 73%
    11:00 +16°C° 0 mm 2 mps 764 mmHg 71%
    12:00 +16°C° 0 mm 2 mps 763 mmHg 69%
    13:00 +17°C° 0 mm 2 mps 763 mmHg 67%
    14:00 +16°C° 0 mm 1 mps 763 mmHg 71%
    15:00 +15°C° 0 mm 1 mps 763 mmHg 76%
    16:00 +15°C° 0 mm 1 mps 763 mmHg 80%
    17:00 +14°C° 0 mm 1 mps 763 mmHg 82%
    18:00 +14°C° 0 mm 1 mps 763 mmHg 84%
    19:00 +13°C° 0 mm 1 mps 763 mmHg 85%
    20:00 +13°C° 0 mm 1 mps 763 mmHg 86%
    21:00 +12°C° 0 mm 2 mps 763 mmHg 86%
    22:00 +12°C° 0 mm 2 mps 763 mmHg 86%
    23:00 +12°C° 0 mm 2 mps 762 mmHg 86%

    Tomorrow, 9 December, Monday

    Time Temperature Precipitation Wind Pressure Humidity
    00:00 +12°C° 0 mm 2 mps 762 mmHg 86%
    01:00 +12°C° 0 mm 2 mps 762 mmHg 85%
    02:00 +10°C° 0 mm 2 mps 761 mmHg 84%
    03:00 +10°C° 0 mm 2 mps 761 mmHg 83%
    04:00 +10°C° 0 mm 3 mps 760 mmHg 82%
    05:00 +10°C° 0 mm 3 mps 760 mmHg 80%
    06:00 +10°C° 0 mm 3 mps 760 mmHg 79%
    07:00 +10°C° 0 mm 3 mps 760 mmHg 78%
    08:00 +11°C° 0 mm 3 mps 760 mmHg 73%
    09:00 +13°C° 0 mm 3 mps 760 mmHg 68%
    10:00 +14°C° 0 mm 3 mps 759 mmHg 64%
    11:00 +16°C° 0 mm 3 mps 759 mmHg 64%
    12:00 +16°C° 0 mm 3 mps 758 mmHg 65%
    13:00 +17°C° 0 mm 3 mps 758 mmHg 65%
    14:00 +15°C° 0.1 mm 4 mps 757 mmHg 69%
    15:00 +14°C° 0.1 mm 5 mps 757 mmHg 72%
    16:00 +13°C° 0.1 mm 5 mps 757 mmHg 76%
    17:00 +13°C° 0.3 mm 6 mps 756 mmHg 75%
    18:00 +11°C° 0.3 mm 6 mps 756 mmHg 74%
    19:00 +11°C° 0.3 mm 6 mps 756 mmHg 74%
    20:00 +11°C° 0.3 mm 6 mps 756 mmHg 73%
    21:00 +11°C° 0.3 mm 6 mps 756 mmHg 72%
    22:00 +11°C° 0.3 mm 6 mps 756 mmHg 71%
    23:00 +11°C° 0.2 mm 6 mps 756 mmHg 70%

    Day after tomorrow, 10 December, Tuesday

    Time Temperature Precipitation Wind Pressure Humidity
    00:00 +10°C° 0.2 mm 6 mps 755 mmHg 70%
    01:00 +10°C° 0.2 mm 6 mps 755 mmHg 69%
    02:00 +10°C° 0.3 mm 5 mps 755 mmHg 70%
    03:00 +10°C° 0.3 mm 5 mps 755 mmHg 71%
    04:00 +10°C° 0.3 mm 5 mps 754 mmHg 71%
    05:00 +11°C° 0.2 mm 4 mps 754 mmHg 72%
    06:00 +11°C° 0.2 mm 4 mps 754 mmHg 72%
    07:00 +11°C° 0.2 mm 4 mps 754 mmHg 72%
    08:00 +12°C° 0.1 mm 3 mps 754 mmHg 70%
    09:00 +13°C° 0.1 mm 3 mps 754 mmHg 68%
    10:00 +15°C° 0.1 mm 2 mps 754 mmHg 65%
    11:00 +15°C° 0.1 mm 2 mps 754 mmHg 65%
    12:00 +15°C° 0.1 mm 2 mps 754 mmHg 65%
    13:00 +15°C° 0.1 mm 1 mps 754 mmHg 65%
    14:00 +14°C° 0 mm 3 mps 754 mmHg 67%
    15:00 +13°C° 0 mm 4 mps 753 mmHg 70%
    16:00 +13°C° 0 mm 6 mps 753 mmHg 73%
    17:00 +11°C° 0 mm 6 mps 754 mmHg 73%
    18:00 +11°C° 0 mm 6 mps 754 mmHg 73%
    19:00 +11°C° 0 mm 6 mps 754 mmHg 73%
    20:00 +11°C° 0.1 mm 7 mps 754 mmHg 71%
    21:00 +11°C° 0.1 mm 8 mps 755 mmHg 69%
    22:00 +11°C° 0.1 mm 10 mps 755 mmHg 67%
    23:00 +9°C° 0 mm 10 mps 755 mmHg 68%

    11 December, Wednesday

    Time Temperature Precipitation Wind Pressure Humidity
    00:00 +9°C° 0 mm 11 mps 755 mmHg 69%
    01:00 +8°C° 0 mm 12 mps 755 mmHg 70%
    02:00 +8°C° 0 mm 11 mps 756 mmHg 69%
    03:00 +8°C° 0 mm 11 mps 756 mmHg 69%
    04:00 +8°C° 0 mm 10 mps 756 mmHg 69%
    05:00 +8°C° 0 mm 10 mps 756 mmHg 68%
    06:00 +8°C° 0 mm 9 mps 756 mmHg 67%
    07:00 +9°C° 0 mm 8 mps 757 mmHg 66%
    08:00 +10°C° 0 mm 8 mps 757 mmHg 63%
    09:00 +10°C° 0 mm 8 mps 758 mmHg 61%
    10:00 +11°C° 0 mm 8 mps 758 mmHg 58%
    11:00 +12°C° 0 mm 7 mps 758 mmHg 55%
    12:00 +14°C° 0 mm 7 mps 758 mmHg 52%
    13:00 +14°C° 0 mm 7 mps 757 mmHg 49%
    14:00 +12°C° 0 mm 7 mps 757 mmHg 54%
    15:00 +11°C° 0 mm 7 mps 758 mmHg 59%
    16:00 +10°C° 0 mm 7 mps 758 mmHg 63%
    17:00 +10°C° 0 mm 6 mps 758 mmHg 64%
    18:00 +9°C° 0 mm 6 mps 758 mmHg 65%
    19:00 +8°C° 0 mm 5 mps 758 mmHg 66%
    20:00 +8°C° 0 mm 5 mps 759 mmHg 66%
    21:00 +8°C° 0 mm 5 mps 759 mmHg 66%
    22:00 +7°C° 0 mm 5 mps 759 mmHg 66%
    23:00 +7°C° 0 mm 4 mps 759 mmHg 67%

    12 December, Thursday

    Time Temperature Precipitation Wind Pressure Humidity
    00:00 +8°C° 0 mm 3 mps 758 mmHg 67%
    01:00 +7°C° 0 mm 2 mps 758 mmHg 67%
    02:00 +7°C° 0 mm 2 mps 758 mmHg 66%
    03:00 +7°C° 0 mm 2 mps 758 mmHg 66%
    04:00 +7°C° 0 mm 2 mps 758 mmHg 65%
    05:00 +7°C° 0 mm 2 mps 758 mmHg 65%
    06:00 +7°C° 0 mm 2 mps 758 mmHg 64%
    07:00 +8°C° 0 mm 1 mps 758 mmHg 64%
    08:00 +9°C° 0 mm 1 mps 758 mmHg 61%
    09:00 +11°C° 0 mm 1 mps 758 mmHg 58%
    10:00 +12°C° 0 mm 1 mps 758 mmHg 55%
    11:00 +13°C° 0 mm 1 mps 757 mmHg 54%
    12:00 +14°C° 0 mm 1 mps 757 mmHg 53%
    13:00 +14°C° 0 mm 1 mps 756 mmHg 52%
    14:00 +13°C° 0 mm 2 mps 756 mmHg 57%
    15:00 +13°C° 0 mm 2 mps 756 mmHg 63%
    16:00 +11°C° 0 mm 3 mps 756 mmHg 68%
    17:00 +10°C° 0 mm 3 mps 757 mmHg 70%
    18:00 +10°C° 0 mm 4 mps 757 mmHg 72%
    19:00 +8°C° 0 mm 4 mps 757 mmHg 74%
    20:00 +9°C° 0.4 mm 5 mps 757 mmHg 75%
    21:00 +9°C° 0.4 mm 6 mps 757 mmHg 75%
    22:00 +9°C° 0.4 mm 6 mps 756 mmHg 76%
    23:00 +9°C° 0.8 mm 6 mps 756 mmHg 78%

    13 December, Friday

    Time Temperature Precipitation Wind Pressure Humidity
    00:00 +9°C° 0.8 mm 6 mps 756 mmHg 80%
    01:00 +9°C° 0.8 mm 5 mps 756 mmHg 82%
    02:00 +9°C° 0.7 mm 5 mps 756 mmHg 85%
    03:00 +8°C° 0.7 mm 5 mps 756 mmHg 87%
    04:00 +8°C° 0.7 mm 5 mps 756 mmHg 90%
    05:00 +8°C° 0.4 mm 6 mps 756 mmHg 90%
    06:00 +8°C° 0.4 mm 6 mps 757 mmHg 89%
    07:00 +8°C° 0.4 mm 7 mps 757 mmHg 89%
    08:00 +9°C° 0.1 mm 6 mps 757 mmHg 83%
    09:00 +10°C° 0.1 mm 6 mps 757 mmHg 77%
    10:00 +10°C° 0.1 mm 6 mps 758 mmHg 71%
    11:00 +11°C° 0.2 mm 6 mps 757 mmHg 70%
    12:00 +11°C° 0.2 mm 7 mps 757 mmHg 70%
    13:00 +11°C° 0.2 mm 7 mps 757 mmHg 69%
    14:00 +10°C° 0.1 mm 6 mps 757 mmHg 71%
    15:00 +10°C° 0.1 mm 5 mps 757 mmHg 73%
    16:00 +9°C° 0.1 mm 5 mps 757 mmHg 75%
    17:00 +10°C° 0 mm 4 mps 757 mmHg 76%
    18:00 +10°C° 0 mm 4 mps 757 mmHg 76%
    19:00 +9°C° 0 mm 3 mps 757 mmHg 77%
    20:00 +9°C° 0 mm 3 mps 758 mmHg 78%
    21:00 +8°C° 0 mm 4 mps 758 mmHg 78%
    22:00 +7°C° 0 mm 4 mps 758 mmHg 79%
    23:00 +7°C° 0 mm 4 mps 758 mmHg 79%
    Show more